Regional Weather Roundup
Issued by NWS Charleston, SC

Current Version | Previous Version | Graphics & Text | Print | Product List | Glossary On
Versions: 1 2 3 4 5 6 7 8 9 10 11 12 13 14 15 16 17 18 19 20 21 22 23 24 25 26 27 28 29 30 31 32 33 34 35 36 37 38 39 40 41 42 43 44 45 46 47 48 49 50
000
ASUS42 KCHS 041327
RWRCHS

REGIONAL WEATHER ROUNDUP
NATIONAL WEATHER SERVICE CHARLESTON SC
900 AM EDT MON MAY 04 2015

NOTE: "FAIR" INDICATES FEW OR NO CLOUDS BELOW 12,000 FEET WITH NO
SIGNIFICANT WEATHER AND/OR OBSTRUCTIONS TO VISIBILITY.

NOT ALL STATIONS ARE QUALITY CONTROLLED BY THE NATIONAL
WEATHER SERVICE. USE DATA WITH CAUTION...ESPECIALLY
DEWPOINT OBSERVATIONS.

SCZ027-030-031-034>040-042>050-041400-
...SOUTHEAST SOUTH CAROLINA...

CITY           SKY/WX    TMP DP  RH WIND       PRES   REMARKS
N CHARLESTON   MOSUNNY   71  62  73 CALM      30.32R
WATERFRONT PRK   N/A     70 N/A N/A N3          N/A
MOUNT PLEASANT FAIR      72  63  73 MISG      30.32R
PINOPOLIS      NOT AVBL
MONCKS CORNER  FAIR      72  61  68 CALM      30.32R
SUMMERVILLE    FAIR      72  63  73 CALM      30.33R
BEAUFORT MCAS  MOSUNNY   71  64  78 VRB3      30.31R
BEAUFORT ARPT  FAIR      70  64  83 CALM      30.31R
HILTON HEAD IS SUNNY     72  63  73 NE5       30.32R
WALTERBORO     SUNNY     68  59  73 CALM      30.32S
ALLENDALE      FAIR      68  59  73 CALM      30.32R

...SOUTHERN MIDLANDS AND PEE DEE...

CITY           SKY/WX    TMP DP  RH WIND       PRES   REMARKS
GEORGETOWN     NOT AVBL
KINGSTREE      NOT AVBL
ORANGEBURG     SUNNY     67  58  72 SW3       30.32R
BARNWELL       FAIR      66  57  72 CALM      30.33R
AIKEN          FAIR      66  52  59 SW3       30.35R
MANNING        FAIR      68  57  68 S3        30.32R
COLUMBIA       MOSUNNY   64  53  67 CALM      30.32R
SUMTER         SUNNY     68  58  70 S3        30.30R
FLORENCE       MOSUNNY   66  60  81 S3        30.32R
MYRTLE BEACH   SUNNY     70  63  78 CALM      30.34R
N MYRTLE BEACH SUNNY     71  62  73 S5        30.33R

$$

GAZ063-065-086>088-099>101-113>116-118-119-134>141-150-041400-
...SOUTHEAST GEORGIA...

CITY           SKY/WX    TMP DP  RH WIND       PRES   REMARKS
SAVANNAH ARPT  MOSUNNY   69  62  78 CALM      30.30R
HUNTER AAF     SUNNY     71  61  69 E5        30.28R
FORT STEWART   SUNNY     66  60  79 CALM      30.28R
STATESBORO       N/A     67  57  70 CALM      30.32R
SYLVANIA       SUNNY     67  58  71 CALM      30.32S
CLAXTON        FAIR      66  59  77 CALM      30.31R

...CSRA...CENTRAL AND FAR SOUTHEAST GEORGIA...

CITY           SKY/WX    TMP DP  RH WIND       PRES   REMARKS
THOMSON        SUNNY     69  60  72 CALM      30.35R
AUGUSTA-BUSH   SUNNY     62  54  74 SE6       30.31R
AUGUSTA-DANIEL SUNNY     65  52  62 S3        30.32R
SWAINSBORO     NOT AVBL
VIDALIA        SUNNY     68  59  73 CALM      30.31R
EASTMAN        FAIR      66  59  78 CALM      30.33R
HAZLEHURST     FAIR      69  59  70 CALM      30.29R
ALMA           SUNNY     68  58  70 CALM      30.28R
WAYCROSS       SUNNY     73  62  69 CALM      30.28R
JESUP          FAIR      73  63  68 E3        30.30R
BAXLEY         FAIR      70  59  68 CALM      30.29R
BRUNSWICK      SUNNY     73  61  64 NE8       30.29R
SAINT SIMONS   SUNNY     73  60  63 NE7       30.28R

$$

SCZ027-028-034-036>038-045-046-048>050-GAZ119-141-041400-
...LAKE AND SUPPLEMENTAL COASTAL OBSERVATIONS...

STATION/POSITION TIME  TEMP    WIND        PRES    WAVE   SWELL
                       AIR SEA DIR/SP/G            HT/PER HT/PER/DIR
                 (UTC) (F)     (DEG/KT/KT) (MB)    (FT/S) (FT/S/D)
UPR LAKE MARION  NOT AVBL
WINYAH BAY       1245   72        CALM     1026.0R
LAKE MURRAY      1200   66     180/  3/  5 1025.4R
ACE BASIN NERRS  NOT AVBL
FORT PULASKI     1200   68 70   30/  4/  5 1025.9R
SAPELO ISLAND    1300   72      40/  5     1025.0S

$$

ANZ835-935-AMZ111-154-330-350-352-354-370-450-454-472-041400-
...C-MAN AND BUOY OBSERVATIONS...

STATION/POSITION TIME  TEMP    WIND        PRES    WAVE   SWELL
                       AIR SEA DIR/SP/G            HT/PER HT/PER/DIR
                 (UTC) (F)     (DEG/KT/KT) (MB)    (FT/S) (FT/S/D)
BUOY 41004       1250   73 74   80/  8/ 10 1026.0R   3/10   3/10
BUOY 41008       1250   71 70   60/  4/  6 1025.5R   3/11   2/ 60/11
FOLLY BEACH CMAN 1300   70      30/  3/  4 1026.5R
CAPERS NEARSHORE 1208   72      CALM  /  4 1026.0R
FRIPP NEARSHORE  1200   70      50/  6/  8 1024.8R


STATION/POSITION TIME  TEMP    WIND        PRES    WAVE   SWELL
                       AIR SEA DIR/SP/G            HT/PER HT/PER/DIR
                 (UTC) (F)     (DEG/KT/KT) (MB)    (FT/S) (FT/S/D)
5E ST. MARYS GA  1221      71                N/A     2/12   2/ 80/12
FRYING PAN BUOY  1250   73 72  180/  6/  8 1027.6R   3/ 9   3/ 70/ 9
BUOY 41025       1250   66     310/  6/  8 1027.1R   4/10   3/ 60/10
CAPE LOOKOUT NC  1300   69      80/  2/  4 1027.1R
BUOY 41002       1250   68 70   60/ 14/ 17 1027.0R   6/11   5/ 30/11
BUOY 41010       1220   73 78   80/ 14/ 17 1023.3R
ST AUGUSTINE FL  1300   71 71   30/ 14/ 16 1024.9R


$$



USA.gov is the U.S. government's official web portal to all federal, state and local government web resources and services.